Location: Mana�l
(15.0115°N, 12.5022°W)
Time: 04:31:55
(UTC+00:00)

Cosmos 1680 Rocket - Pass Details

Date: 07 June 2020
Orbit: 759 x 782 km, 74.1° (Epoch: 05 July)

Event Time Altitude Azimuth Distance (km) Brightness Sun altitude
Exits shadow 04:47:27 37° 272° (W) 1,184 4.0 -20.5°
Maximum altitude 04:47:56 37° 285° (WNW) 1,167 4.1 -20.4°
Drops below altitude 10° 04:52:47 10° 353° (N) 2,309 6.3 -19.4°
Sets 04:55:20 0° 1° (N) 3,241 7.2 -18.9°
